Regional Weather Roundup
Issued by NWS

Home | Current Version | Previous Version | Graphics & Text | Print | Product List | Glossary On
Versions: 1 2 3 4 5 6 7 8 9 10 11 12 13 14 15 16 17 18 19 20 21 22 23 24 25 26 27 28 29 30 31 32 33 34 35 36 37 38 39 40 41 42 43 44 45 46 47 48 49 50
000
ASUS43 KTOP 061759
RWRKS

WEATHER ROUNDUP FOR KANSAS
NATIONAL WEATHER SERVICE GOODLAND KS
100 PM CDT MON JUL 06 2015

NOTE:  "FAIR" INDICATES FEW OR NO CLOUDS BELOW 12,000 FEET WITH NO
SIGNIFICANT WEATHER AND/OR OBSTRUCTIONS TO VISIBILITY.

KSZ001>006-013>018-027>032-041>047-061900-
NORTHWEST KANSAS

CITY           SKY/WX    TMP DP  RH WIND       PRES   REMARKS
GOODLAND       CLOUDY    65  59  81 N17G26    30.15R
6HR MIN TEMP:  63; 6HR MAX TEMP:  65;

HAYS           CLOUDY    73  64  73 N21       29.97R
HILL CITY      CLOUDY    73  65  75 N21G29    30.02R
6HR MIN TEMP:  71; 6HR MAX TEMP:  74; 6HR PCP:  0.04;

RUSSELL        RAIN      74  72  93 N10       29.93S FOG
6HR MIN TEMP:  74; 6HR MAX TEMP:  85;

$$

KSZ061>065-074>080-084>089-061900-
SOUTHWEST KANSAS

CITY           SKY/WX    TMP DP  RH WIND       PRES   REMARKS
DODGE CITY     PTSUNNY   77  66  68 N23G32    29.98R
6HR MIN TEMP:  72; 6HR MAX TEMP:  82;

ELKHART          N/A     79  57  46 NW18        N/A
GARDEN CITY    CLOUDY    75  64  68 N24G32    30.02R
6HR MIN TEMP:  69; 6HR MAX TEMP:  78;

GREAT BEND     CLOUDY    81  68  65 N16       29.92R
LIBERAL        MOSUNNY   82  64  54 N16G26    30.02S
$$

KSZ066>073-081>083-090>101-061900-
SOUTHEAST KANSAS

CITY           SKY/WX    TMP DP  RH WIND       PRES   REMARKS
CHANUTE        MOSUNNY   88  75  65 S14G31    29.93F HX  97
6HR MIN TEMP:  75; 6HR MAX TEMP:  88;

COFFEYVILLE    PTSUNNY   89  74  60 S18       29.93F HX  98
6HR MIN TEMP:  74; 6HR MAX TEMP:  89;

HUTCHINSON     MOSUNNY   93  68  43 SW9G21    29.88S HX  97
6HR MIN TEMP:  77; 6HR MAX TEMP:  94;

MEDICINE LODGE   N/A     94  68  42 SW13G22   29.86F HX  98
NEWTON         MOSUNNY   91  68  46 SW15G25   29.91F HX  95
PARSONS        PTSUNNY   87  75  67 S14G22    29.95F HX  96
6HR MIN TEMP:  75; 6HR MAX TEMP:  88;

WICHITA INTL   PTSUNNY   92  69  47 S21G28    29.87F HX  97
6HR MIN TEMP:  77; 6HR MAX TEMP:  93;

WICHITA JABRA  MOSUNNY   91  70  49 S18G25    29.88F HX  96
6HR MIN TEMP:  76; 6HR MAX TEMP:  93;

WINFIELD       PTSUNNY   93  72  50 S21G30    29.91F HX 101
6HR MIN TEMP:  76; 6HR MAX TEMP:  93;

$$

KSZ007>012-019>026-033>040-048>060-102>105-061900-
NORTHEAST KANSAS

CITY           SKY/WX    TMP DP  RH WIND       PRES   REMARKS
CONCORDIA      LGT RAIN  73  71  93 N8        29.91R FOG
6HR MIN TEMP:  73; 6HR MAX TEMP:  85; 6HR PCP:  0.32;

EMPORIA        MOSUNNY   90  73  57 S16G24    29.88F HX  98
6HR MIN TEMP:  74; 6HR MAX TEMP:  90;

LAWRENCE       MOSUNNY   89  75  63 S15       29.87F HX  99
6HR MIN TEMP:  74; 6HR MAX TEMP:  89;

MANHATTAN      MOSUNNY   92  71  50 SW7       29.85F HX  98
6HR MIN TEMP:  78; 6HR MAX TEMP:  92;

OLATHE IND     PTSUNNY   88  74  63 S18G28    29.91F HX  96
6HR MIN TEMP:  73; 6HR MAX TEMP:  88; 6HR PCP: TRACE;

OLATHE EXE     PTSUNNY   85  74  69 S16G25    29.90F
6HR MIN TEMP:  73; 6HR MAX TEMP:  86;

SALINA         CLOUDY    90  68  48 W6        29.86S
6HR MIN TEMP:  78; 6HR MAX TEMP:  93;

TOPEKA BILLARD SUNNY     90  73  57 S15       29.86F HX  98
6HR MIN TEMP:  77; 6HR MAX TEMP:  90;

TOPEKA FORBES  MOSUNNY   90  74  59 S14       29.87F HX  99
6HR MIN TEMP:  77; 6HR MAX TEMP:  90;

$$



USA.gov is the U.S. government's official web portal to all federal, state and local government web resources and services.